This is the latest recevied weather packets stored in our database for station/object K7PMV-13. If no packets are shown the sender has not sent any weather packets the latest 10 day(s).
| Time | Temp. | Humidity | Pressure | Rain* | Wind** | Luminosity | Snow |
|---|---|---|---|---|---|---|---|
| 1777859894 | 31.11° C | 20% | 1002.3 hPa | 0 mm | - | 12 W/m² | - |
| 1777859576 | 31.11° C | 20% | 1002.2 hPa | 0 mm | - | 18 W/m² | - |
| 1777859259 | 31.67° C | 20% | 1002.4 hPa | 0 mm | - | 26 W/m² | - |
| 1777858583 | 32.22° C | 19% | 1002 hPa | 0 mm | - | 32 W/m² | - |
| 1777858258 | 32.22° C | 19% | 1002 hPa | 0 mm | - | 42 W/m² | - |
| 1777857944 | 32.78° C | 18% | 1001.8 hPa | 0 mm | - | 58 W/m² | - |
| 1777857629 | 32.78° C | 18% | 1002 hPa | 0 mm | - | 70 W/m² | - |
| 1777857314 | 32.78° C | 17% | 1001.9 hPa | 0 mm | - | 69 W/m² | - |
| 1777856978 | 33.33° C | 17% | 1001.8 hPa | 0 mm | - | 40 W/m² | - |
| 1777856658 | 33.33° C | 17% | 1001.9 hPa | 0 mm | - | 37 W/m² | - |
| 1777856344 | 33.89° C | 17% | 1001.9 hPa | 0 mm | - | 51 W/m² | - |
| 1777856024 | 33.89° C | 17% | 1002 hPa | 0 mm | - | 111 W/m² | - |
| 1777855703 | 33.89° C | 17% | 1002 hPa | 0 mm | - | 72 W/m² | - |
| 1777855388 | 33.89° C | 17% | 1002 hPa | 0 mm | - | 67 W/m² | - |
| 1777855058 | 34.44° C | 17% | 1001.9 hPa | 0 mm | - | 51 W/m² | - |
| 1777854743 | 34.44° C | 17% | 1001.9 hPa | 0 mm | - | 199 W/m² | - |
| 1777854428 | 34.44° C | 17% | 1001.9 hPa | 0 mm | - | 285 W/m² | - |
| 1777854099 | 35° C | 17% | 1001.8 hPa | 0 mm | - | 304 W/m² | - |
| 1777853783 | 35° C | 17% | 1001.8 hPa | 0 mm | - | 330 W/m² | - |
| 1777853468 | 35° C | 17% | 1001.8 hPa | 0 mm | - | 345 W/m² | - |
| 1777853150 | 35° C | 16% | 1001.7 hPa | 0 mm | - | 364 W/m² | - |
| 1777852828 | 35.56° C | 16% | 1001.7 hPa | 0 mm | - | 385 W/m² | - |
| 1777852514 | 35.56° C | 16% | 1001.8 hPa | 0 mm | - | 403 W/m² | - |
| 1777852186 | 35.56° C | 16% | 1001.8 hPa | 0 mm | - | 420 W/m² | - |
| 1777851868 | 35.56° C | 17% | 1001.8 hPa | 0 mm | - | 438 W/m² | - |
* Rain latest hour (hover to see other rain measurements)
** Current wind speed in m/s (hover to see current wind gust speed)